User: anonymous   Login
Location: Unspecified
(0.0000°N, 0.0000°E)
Time: 07:26:42
(UTC+00:00)
Language:

POPSAT HIP 1 - Orbit

View from above orbital plane
View from above orbital plane
View from above satellite
View from above satellite

Ground track
Ground track

The orbit data is extracted from the following two-line orbital elements,

1 40028U 14033U   24104.85371612  .00007935  00000-0  68315-3 0  9999
2 40028  98.0507  65.2540 0012672  25.1699 335.0137 14.97586120533159
Epoch (UTC): 13 April 2024 20:29:21
Eccentricity: 0.0012672
inclination: 98.0507°
perigee height: 565 km
apogee height: 583 km
right ascension of ascending node: 65.2540°
argument of perigee: 25.1699°
revolutions per day: 14.97586120
mean anomaly at epoch: 335.0137°
orbit number at epoch: 53315

The dashed part of the orbit path shows where the satellite is in the earth's shadow,  

DLR